• En España
  • Lista de países
  • Para 7 días
  • Temperatura del agua
  • Mapa Satelital
  • El tiempo en el mapa
  • Informadores
  • user-avatar
    Iniciar sesión

    Tiempo cada hora Haradok

    Hoy, 26 Febrero, Lunes

    Tiempo Temperatura Precipitaciones Viento Presión Humedad
    00:00 -18°C° 0 mm 1 mps 757 mmHg 96%
    01:00 -18°C° 0 mm 1 mps 757 mmHg 97%
    02:00 -18°C° 0 mm 1 mps 757 mmHg 97%
    03:00 -18°C° 0 mm 1 mps 756 mmHg 97%
    04:00 -19°C° 0 mm 1 mps 756 mmHg 97%
    05:00 -19°C° 0 mm 1 mps 756 mmHg 98%
    06:00 -18°C° 0 mm 1 mps 756 mmHg 97%
    07:00 -18°C° 0 mm 1 mps 756 mmHg 97%
    08:00 -18°C° 0 mm 1 mps 756 mmHg 96%
    09:00 -17°C° 0 mm 1 mps 756 mmHg 92%
    10:00 -15°C° 0 mm 1 mps 756 mmHg 87%
    11:00 -14°C° 0 mm 1 mps 756 mmHg 82%
    12:00 -13°C° 0 mm 1 mps 756 mmHg 79%
    13:00 -13°C° 0 mm 1 mps 756 mmHg 77%
    14:00 -12°C° 0 mm 0 mps 756 mmHg 74%
    15:00 -13°C° 0 mm 0 mps 756 mmHg 77%
    16:00 -14°C° 0 mm 0 mps 756 mmHg 81%
    17:00 -14°C° 0 mm 0 mps 756 mmHg 84%
    18:00 -15°C° 0 mm 1 mps 756 mmHg 86%
    19:00 -16°C° 0 mm 1 mps 756 mmHg 89%
    20:00 -17°C° 0 mm 1 mps 756 mmHg 92%
    21:00 -18°C° 0 mm 1 mps 756 mmHg 92%
    22:00 -18°C° 0 mm 1 mps 756 mmHg 93%
    23:00 -19°C° 0 mm 1 mps 757 mmHg 94%

    Mañana, 27 Febrero, Martes

    Tiempo Temperatura Precipitaciones Viento Presión Humedad
    00:00 -19°C° 0 mm 1 mps 757 mmHg 95%
    01:00 -19°C° 0 mm 1 mps 757 mmHg 95%
    02:00 -20°C° 0 mm 1 mps 758 mmHg 96%
    03:00 -23°C° 0 mm 2 mps 758 mmHg 96%
    04:00 -24°C° 0 mm 2 mps 758 mmHg 96%
    05:00 -24°C° 0 mm 2 mps 758 mmHg 96%
    06:00 -24°C° 0 mm 2 mps 759 mmHg 95%
    07:00 -24°C° 0 mm 2 mps 759 mmHg 95%
    08:00 -24°C° 0 mm 2 mps 759 mmHg 94%
    09:00 -24°C° 0 mm 3 mps 760 mmHg 91%
    10:00 -22°C° 0 mm 3 mps 760 mmHg 88%
    11:00 -21°C° 0 mm 3 mps 761 mmHg 85%
    12:00 -19°C° 0 mm 3 mps 761 mmHg 83%
    13:00 -18°C° 0 mm 3 mps 761 mmHg 81%
    14:00 -18°C° 0 mm 4 mps 761 mmHg 79%
    15:00 -17°C° 0 mm 3 mps 762 mmHg 81%
    16:00 -18°C° 0 mm 3 mps 762 mmHg 82%
    17:00 -18°C° 0 mm 3 mps 762 mmHg 84%
    18:00 -20°C° 0 mm 4 mps 762 mmHg 85%
    19:00 -20°C° 0 mm 4 mps 762 mmHg 87%
    20:00 -22°C° 0 mm 4 mps 763 mmHg 88%
    21:00 -22°C° 0 mm 4 mps 763 mmHg 89%
    22:00 -23°C° 0 mm 4 mps 763 mmHg 89%
    23:00 -23°C° 0 mm 4 mps 764 mmHg 90%

    Pasado mañana, 28 Febrero, Miércoles

    Tiempo Temperatura Precipitaciones Viento Presión Humedad
    00:00 -23°C° 0 mm 4 mps 764 mmHg 90%
    01:00 -24°C° 0 mm 4 mps 764 mmHg 90%
    02:00 -24°C° 0 mm 4 mps 764 mmHg 90%
    03:00 -24°C° 0 mm 4 mps 764 mmHg 90%
    04:00 -26°C° 0 mm 5 mps 764 mmHg 90%
    05:00 -26°C° 0 mm 5 mps 763 mmHg 90%
    06:00 -26°C° 0 mm 5 mps 763 mmHg 89%
    07:00 -25°C° 0 mm 5 mps 763 mmHg 87%
    08:00 -25°C° 0 mm 5 mps 763 mmHg 86%
    09:00 -24°C° 0 mm 5 mps 763 mmHg 83%
    10:00 -23°C° 0 mm 6 mps 763 mmHg 80%
    11:00 -22°C° 0 mm 6 mps 763 mmHg 77%
    12:00 -21°C° 0 mm 6 mps 762 mmHg 76%
    13:00 -20°C° 0 mm 6 mps 762 mmHg 75%
    14:00 -18°C° 0 mm 6 mps 762 mmHg 74%
    15:00 -18°C° 0 mm 6 mps 761 mmHg 75%
    16:00 -18°C° 0 mm 6 mps 761 mmHg 76%
    17:00 -18°C° 0 mm 5 mps 761 mmHg 78%
    18:00 -19°C° 0 mm 5 mps 761 mmHg 80%
    19:00 -20°C° 0 mm 6 mps 761 mmHg 82%
    20:00 -21°C° 0 mm 6 mps 761 mmHg 84%
    21:00 -20°C° 0 mm 5 mps 761 mmHg 85%
    22:00 -21°C° 0 mm 5 mps 761 mmHg 86%
    23:00 -21°C° 0 mm 5 mps 761 mmHg 87%

    1 Marzo, Jueves

    Tiempo Temperatura Precipitaciones Viento Presión Humedad
    00:00 -21°C° 0 mm 5 mps 760 mmHg 88%
    01:00 -22°C° 0 mm 4 mps 760 mmHg 88%
    02:00 -22°C° 0 mm 4 mps 760 mmHg 89%
    03:00 -22°C° 0 mm 4 mps 760 mmHg 89%
    04:00 -22°C° 0 mm 4 mps 760 mmHg 89%
    05:00 -20°C° 0 mm 4 mps 760 mmHg 89%
    06:00 -22°C° 0 mm 4 mps 760 mmHg 89%
    07:00 -22°C° 0 mm 4 mps 760 mmHg 89%
    08:00 -22°C° 0 mm 4 mps 760 mmHg 89%
    09:00 -20°C° 0 mm 4 mps 760 mmHg 88%
    10:00 -19°C° 0 mm 4 mps 760 mmHg 86%
    11:00 -18°C° 0 mm 4 mps 760 mmHg 84%
    12:00 -17°C° 0 mm 4 mps 760 mmHg 83%
    13:00 -16°C° 0 mm 4 mps 759 mmHg 83%
    14:00 -15°C° 0 mm 4 mps 759 mmHg 82%
    15:00 -15°C° 0 mm 4 mps 759 mmHg 84%
    16:00 -14°C° 0 mm 3 mps 759 mmHg 85%
    17:00 -14°C° 0 mm 3 mps 759 mmHg 87%
    18:00 -14°C° 0 mm 3 mps 759 mmHg 88%
    19:00 -15°C° 0 mm 4 mps 758 mmHg 89%
    20:00 -16°C° 0 mm 4 mps 758 mmHg 90%
    21:00 -16°C° 0 mm 4 mps 758 mmHg 90%
    22:00 -17°C° 0 mm 4 mps 758 mmHg 90%
    23:00 -17°C° 0 mm 4 mps 758 mmHg 90%

    2 Marzo, Viernes

    Tiempo Temperatura Precipitaciones Viento Presión Humedad
    00:00 -17°C° 0 mm 4 mps 758 mmHg 90%
    01:00 -17°C° 0 mm 4 mps 757 mmHg 89%
    02:00 -17°C° 0 mm 4 mps 757 mmHg 89%
    03:00 -17°C° 0 mm 4 mps 757 mmHg 88%
    04:00 -17°C° 0 mm 4 mps 756 mmHg 88%
    05:00 -17°C° 0 mm 4 mps 756 mmHg 87%
    06:00 -17°C° 0 mm 4 mps 756 mmHg 87%
    07:00 -17°C° 0 mm 4 mps 755 mmHg 86%
    08:00 -17°C° 0 mm 4 mps 755 mmHg 85%
    09:00 -16°C° 0 mm 4 mps 755 mmHg 83%
    10:00 -15°C° 0 mm 4 mps 755 mmHg 81%
    11:00 -14°C° 0 mm 4 mps 755 mmHg 79%
    12:00 -12°C° 0 mm 4 mps 754 mmHg 79%
    13:00 -11°C° 0 mm 4 mps 754 mmHg 78%
    14:00 -10°C° 0 mm 4 mps 753 mmHg 77%
    15:00 -10°C° 0 mm 4 mps 753 mmHg 80%
    16:00 -9°C° 0 mm 3 mps 753 mmHg 82%
    17:00 -10°C° 0 mm 3 mps 752 mmHg 85%
    18:00 -12°C° 0 mm 3 mps 752 mmHg 87%
    19:00 -12°C° 0 mm 3 mps 752 mmHg 89%
    20:00 -13°C° 0 mm 3 mps 752 mmHg 91%
    21:00 -13°C° 0 mm 3 mps 752 mmHg 91%
    22:00 -13°C° 0 mm 3 mps 751 mmHg 92%
    23:00 -13°C° 0 mm 3 mps 751 mmHg 92%

    3 Marzo, Sábado

    Tiempo Temperatura Precipitaciones Viento Presión Humedad
    00:00 -13°C° 0 mm 3 mps 751 mmHg 93%
    01:00 -12°C° 0 mm 2 mps 751 mmHg 93%
    02:00 -12°C° 0 mm 2 mps 751 mmHg 94%
    03:00 -12°C° 0 mm 2 mps 750 mmHg 94%
    04:00 -13°C° 0 mm 2 mps 750 mmHg 95%
    05:00 -13°C° 0 mm 2 mps 750 mmHg 95%
    06:00 -13°C° 0 mm 2 mps 750 mmHg 95%
    07:00 -13°C° 0 mm 2 mps 750 mmHg 95%
    08:00 -13°C° 0 mm 2 mps 750 mmHg 94%
    09:00 -12°C° 0 mm 2 mps 749 mmHg 92%
    10:00 -10°C° 0 mm 2 mps 749 mmHg 90%
    11:00 -9°C° 0 mm 2 mps 749 mmHg 87%
    12:00 -8°C° 0 mm 2 mps 749 mmHg 87%
    13:00 -7°C° 0 mm 2 mps 748 mmHg 86%
    14:00 -6°C° 0 mm 2 mps 748 mmHg 86%
    15:00 -6°C° 0 mm 2 mps 748 mmHg 87%
    16:00 -6°C° 0 mm 2 mps 748 mmHg 89%
    17:00 -4°C° 0 mm 1 mps 747 mmHg 90%
    18:00 -6°C° 0 mm 1 mps 747 mmHg 92%
    19:00 -6°C° 0 mm 1 mps 747 mmHg 93%
    20:00 -7°C° 0 mm 2 mps 747 mmHg 94%
    21:00 -8°C° 0 mm 2 mps 747 mmHg 95%
    22:00 -8°C° 0 mm 2 mps 747 mmHg 95%
    23:00 -8°C° 0 mm 2 mps 747 mmHg 95%
    Mostrar más